Location: Bridgewater
(44.3670°N, 64.5170°W)
Time: 19:28:42
(UTC-03:00)

Amateur Radio Satellites - All Passes

Search period start: 28 August 2016 18:58
Search period end: 29 August 2016 18:58
Location: Bridgewater, 44.3670°N, 64.5170°W

Satellite Date Start Highest point End Downlink Frequencies (MHz)
Time Altitude Azimuth
BRITE-PL 28 Aug 19:12:57 19:17:05 27° 268° (W) 19:21:31 437.365/2234.400
Cubesat XI-IV 28 Aug 19:13:00 19:18:12 53° 260° (W) 19:23:26 437.490
CINEMA 3 28 Aug 19:19:34 19:23:49 28° 67° (ENE) 19:28:01 145.822/145.860
NOAA 15 28 Aug 19:23:17 19:28:00 33° 264° (W) 19:32:45 137.62
CUTE-I 28 Aug 19:24:49 19:29:50 41° 262° (W) 19:34:52 437.470
SEEDS 28 Aug 19:26:13 19:28:37 15° 63° (ENE) 19:31:01 437.485
PCSat 28 Aug 19:27:06 19:30:24 16° 35° (NE) 19:33:41 145.827
CUBEBUG 2 28 Aug 19:33:55 19:35:31 12° 60° (ENE) 19:37:07 437.445
CUBESAT XI-V 28 Aug 19:42:45 19:46:36 25° 294° (WNW) 19:50:25 437.345
BEESAT 2 28 Aug 19:45:14 19:49:06 46° 241° (WSW) 19:52:57 435.950
CANX-2 28 Aug 19:47:59 19:51:54 39° 71° (ENE) 19:55:50 2200.000
STRAND 1 28 Aug 19:48:18 19:52:26 24° 94° (E) 19:56:33 437.568
HO-68 28 Aug 19:51:45 19:58:48 62° 68° (ENE) 20:05:52 435.675
CUTE 1.7 + AOD 2 28 Aug 19:53:53 19:57:48 39° 71° (ENE) 20:01:44 437.475
AAUSAT CUBESAT 2 28 Aug 19:54:14 19:56:50 17° 64° (ENE) 19:59:26 437.432
LilacSat-2 28 Aug 19:58:08 20:00:01 13° 269° (W) 20:01:54 437.200
BEESAT 3 28 Aug 20:02:21 20:04:58 17° 248° (WSW) 20:07:34 437.485
COMPASS 1 28 Aug 20:02:25 20:05:46 25° 67° (ENE) 20:09:08 437.405
NOAA 18 28 Aug 20:14:58 20:18:43 18° 269° (W) 20:22:27 137.9125
Cosmos 2504 28 Aug 20:17:12 20:23:50 40° 272° (W) 20:30:22 435.465 / 435.565
DOVE 4 28 Aug 20:23:21 20:27:42 27° 267° (W) 20:32:09 437.250
GOMX 1 28 Aug 20:24:05 20:26:39 14° 274° (W) 20:29:17 467.674
Cosmos 2491 28 Aug 20:24:57 20:32:46 36° 292° (WNW) 20:40:42 435.465 / 435.565
AIST 2 28 Aug 20:27:27 20:31:01 26° 44° (NE) 20:34:34 435.215
Oscar 11 28 Aug 20:44:43 20:48:11 24° 66° (ENE) 20:51:38 145.826/435.025
YUBILEINY 28 Aug 20:45:01 20:47:53 12° 289° (WNW) 20:50:45 435.215
FUNcube-1 28 Aug 20:53:17 20:57:03 28° 68° (ENE) 21:00:44 145.935
CINEMA 3 28 Aug 20:56:08 21:00:47 38° 263° (W) 21:05:24 145.822/145.860
SEEDS 28 Aug 20:59:50 21:03:54 54° 260° (W) 21:08:00 437.485
AIST 1 28 Aug 21:00:36 21:05:01 88° 272° (W) 21:09:24
UWE-3 28 Aug 21:02:25 21:06:53 57° 73° (ENE) 21:11:15 435.000/436.395/437.385
CUBEBUG 2 28 Aug 21:06:47 21:11:29 89° 256° (WSW) 21:16:04 437.445
PCSat 28 Aug 21:09:23 21:14:48 70° 56° (NE) 21:20:13 145.827
ZACube-1 28 Aug 21:14:46 21:19:03 49° 72° (ENE) 21:23:16 437.345
DELFI C3 28 Aug 21:23:25 21:26:37 24° 67° (ENE) 21:29:49 145.870
CANX-2 28 Aug 21:24:54 21:27:55 19° 268° (W) 21:30:57 2200.000
STRAND 1 28 Aug 21:26:58 21:31:47 44° 291° (WNW) 21:36:36 437.568
AAUSAT CUBESAT 2 28 Aug 21:28:00 21:31:57 47° 261° (W) 21:35:57 437.432
CUTE 1.7 + AOD 2 28 Aug 21:30:49 21:33:48 19° 268° (W) 21:36:49 437.475
COMPASS 1 28 Aug 21:37:35 21:41:13 30° 264° (W) 21:44:53 437.405
HO-68 28 Aug 21:40:58 21:46:56 28° 266° (W) 21:52:56 435.675
AUBIESAT-1 28 Aug 21:51:08 21:53:23 13° 54° (NE) 21:55:35 437.475
HUMSAT D 28 Aug 21:52:26 21:55:53 26° 68° (ENE) 21:59:20 437.325/437.525
M-CUBED/EXP-1 PRIME 28 Aug 21:56:42 21:59:52 18° 57° (ENE) 22:03:01 437.505
AIST 2 28 Aug 22:05:42 22:09:37 39° 242° (WSW) 22:13:31 435.215
PRISM 28 Aug 22:07:11 22:11:23 69° 103° (ESE) 22:15:33 437.425
Oscar 11 28 Aug 22:20:15 22:24:10 33° 264° (W) 22:28:05 145.826/435.025
FUNcube-1 28 Aug 22:29:20 22:33:13 29° 264° (W) 22:37:03 145.935
UWE-3 28 Aug 22:40:57 22:43:39 15° 269° (W) 22:46:19 435.000/436.395/437.385
TIGRISAT 28 Aug 22:48:21 22:51:29 20° 93° (E) 22:54:36 435.000
ESTCUBE 1 28 Aug 22:51:06 22:54:32 22° 64° (ENE) 22:57:58 437.505/2401.250
ZACube-1 28 Aug 22:52:40 22:55:34 17° 268° (W) 22:58:27 437.345
PCSat 28 Aug 22:54:02 22:57:37 18° 255° (WSW) 23:01:11 145.827
AISAT 28 Aug 22:55:45 22:58:13 15° 61° (ENE) 23:00:43 437.250
DELFI C3 28 Aug 22:57:58 23:01:21 27° 264° (W) 23:04:47 145.870
GONETS M04 28 Aug 22:59:21 23:07:52 47° 73° (ENE) 23:16:17
UNISAT 6 28 Aug 23:16:41 23:20:47 41° 98° (E) 23:24:48 437.425
Cosmos 2499 28 Aug 23:17:38 23:24:18 43° 73° (ENE) 23:31:00 435.465 / 435.565
AUBIESAT-1 28 Aug 23:22:31 23:27:09 89° 243° (WSW) 23:31:48 437.475
HUMSAT D 28 Aug 23:27:50 23:31:25 28° 264° (W) 23:35:01 437.325/437.525
50 SAT 28 Aug 23:28:33 23:31:22 22° 68° (ENE) 23:34:14 437.505
M-CUBED/EXP-1 PRIME 28 Aug 23:29:13 23:33:53 65° 254° (WSW) 23:38:34 437.505
O/OREOS (USA 219) 28 Aug 23:36:04 23:40:30 45° 61° (ENE) 23:44:54 437.305
CUBEBUG 1 28 Aug 23:39:53 23:44:02 43° 70° (ENE) 23:48:15 437.445
VELOX 1 28 Aug 23:41:01 23:45:06 37° 69° (ENE) 23:49:13 145.980
PRISM 28 Aug 23:44:18 23:46:08 13° 299° (WNW) 23:47:57 437.425
SO-50 28 Aug 23:45:34 23:50:08 42° 118° (ESE) 23:54:41 436.795
POPSAT HIP 1 28 Aug 23:47:20 23:49:16 13° 90° (E) 23:51:10 437.405
SPROUT 28 Aug 23:52:37 23:56:08 25° 67° (ENE) 23:59:41 437.525
ANTELSAT 28 Aug 23:53:30 23:57:48 79° 285° (WNW) 00:02:03 437.575/2403.000
RS-15 28 Aug 23:54:11 00:00:49 17° 95° (E) 00:07:36 29.354- 29.394
DX 1 28 Aug 23:54:21 23:58:20 35° 69° (ENE) 00:02:21 434.975-435.025
DUCHIFAT 1 29 Aug 00:12:31 00:15:46 21° 94° (E) 00:19:00 145.980
CUSAT 1 29 Aug 00:16:14 00:19:14 72° 282° (WNW) 00:23:03 437.405
QB50P2 29 Aug 00:16:38 00:20:20 29° 96° (E) 00:23:59 145.880/145.840
POLYITAN 1 29 Aug 00:19:09 00:22:51 29° 96° (E) 00:26:29 437.675
TIGRISAT 29 Aug 00:24:22 00:28:21 39° 290° (WNW) 00:32:18 435.000
NANOSAT C BR1 29 Aug 00:26:32 00:30:21 32° 97° (E) 00:34:07 145.865
ESTCUBE 1 29 Aug 00:26:51 00:31:04 41° 262° (W) 00:35:21 437.505/2401.250
AISAT 29 Aug 00:29:44 00:34:10 66° 258° (WSW) 00:38:39 437.250
UKube-1 29 Aug 00:32:07 00:36:24 69° 74° (ENE) 00:40:44 .
UNISAT 6 29 Aug 00:54:07 00:57:13 20° 296° (WNW) 01:00:17 437.425
GONETS M04 29 Aug 00:56:28 01:04:34 42° 274° (W) 01:12:38
AUBIESAT-1 29 Aug 01:01:12 01:02:09 11° 267° (W) 01:03:07 437.475
50 SAT 29 Aug 01:01:54 01:04:53 24° 265° (W) 01:07:51 437.505
BUGSAT 1 29 Aug 01:02:19 01:06:02 31° 96° (E) 01:09:42 437.445
Cosmos 2499 29 Aug 01:11:01 01:17:15 35° 273° (W) 01:23:34 435.465 / 435.565
QB50P1 29 Aug 01:11:04 01:15:18 76° 286° (WNW) 01:19:29 145.935-145.965
JAS-2 29 Aug 01:15:28 01:22:13 59° 101° (E) 01:29:41 435.910
O/OREOS (USA 219) 29 Aug 01:16:12 01:19:35 21° 259° (WSW) 01:22:58 437.305
CUBEBUG 1 29 Aug 01:17:20 01:20:31 19° 268° (W) 01:23:44 437.445
VELOX 1 29 Aug 01:18:09 01:21:40 23° 266° (W) 01:25:13 145.980
ITUPSAT 1 29 Aug 01:20:53 01:22:46 12° 58° (ENE) 01:24:39 437.325
POPSAT HIP 1 29 Aug 01:21:16 01:25:27 60° 286° (WNW) 01:29:34 437.405
DANDE 29 Aug 01:25:46 01:28:05 28° 287° (WNW) 01:30:40 436.750
SO-50 29 Aug 01:26:25 01:30:45 31° 316° (NW) 01:35:02 436.795
SPROUT 29 Aug 01:28:04 01:31:57 32° 264° (W) 01:35:51 437.525
DX 1 29 Aug 01:31:06 01:34:36 23° 266° (W) 01:38:07 434.975-435.025
TISAT 1 29 Aug 01:41:53 01:46:08 83° 77° (ENE) 01:50:25 437.305
DUCHIFAT 1 29 Aug 01:47:44 01:51:34 35° 290° (WNW) 01:55:21 145.980
SWISSCUBE 29 Aug 01:50:52 01:54:45 26° 65° (ENE) 01:58:38 437.505
QB50P2 29 Aug 01:52:30 01:56:03 27° 293° (WNW) 01:59:35 145.880/145.840
Oscar 19 29 Aug 01:53:14 01:57:21 23° 93° (E) 02:01:27 437.125/150
POLYITAN 1 29 Aug 01:55:02 01:58:34 26° 293° (WNW) 02:02:04 437.675
RS-15 29 Aug 01:59:25 02:10:51 72° 118° (ESE) 02:22:55 29.354- 29.394
NANOSAT C BR1 29 Aug 02:02:33 02:05:55 24° 294° (WNW) 02:09:16 145.865
BEESAT 29 Aug 02:07:26 02:11:39 33° 67° (ENE) 02:15:53 436.000
UKube-1 29 Aug 02:11:21 02:12:55 12° 270° (W) 02:14:30 .
PHONESAT 2.4 29 Aug 02:15:29 02:17:45 20° 160° (SSE) 02:20:02 2401.200-2431.200
BUGSAT 1 29 Aug 02:37:57 02:41:16 23° 294° (WNW) 02:44:32 437.445
ITUPSAT 1 29 Aug 02:55:07 02:59:52 90° 226° (SW) 03:04:40 437.325
JAS-2 29 Aug 03:01:12 03:06:56 31° 297° (WNW) 03:13:12 435.910
ITAMSAT 1 29 Aug 03:10:52 03:14:10 17° 91° (E) 03:17:26 435.822/435.867
Gurwin Techsat 1B 29 Aug 03:13:28 03:18:44 58° 101° (E) 03:23:57 435.225
SWISSCUBE 29 Aug 03:27:56 03:32:21 38° 262° (W) 03:36:49 437.505
KKS-1 29 Aug 03:30:56 03:34:40 27° 66° (ENE) 03:38:25 437.445
Oscar 19 29 Aug 03:31:55 03:36:54 48° 291° (WNW) 03:41:53 437.125/150
BEESAT 29 Aug 03:45:17 03:49:25 29° 264° (W) 03:53:35 436.000
MOZHAYETS 4 29 Aug 03:45:55 03:50:15 45° 71° (ENE) 03:54:36
PHONESAT 2.4 29 Aug 03:50:54 03:53:42 37° 176° (S) 03:56:31 2401.200-2431.200
STARS 29 Aug 04:02:57 04:06:45 28° 67° (ENE) 04:10:32 437.465
RS-15 29 Aug 04:13:07 04:24:17 45° 325° (NW) 04:35:56 29.354- 29.394
Cosmos 2491 29 Aug 04:35:32 04:43:06 30° 66° (ENE) 04:50:36 435.465 / 435.565
ITUPSAT 1 29 Aug 04:38:08 04:38:23 10° 273° (W) 04:38:39 437.325
ITAMSAT 1 29 Aug 04:48:57 04:54:05 65° 288° (WNW) 04:59:13 435.822/435.867
AO-7 29 Aug 04:53:22 05:01:34 59° 103° (ESE) 05:09:42 29.400- 29.500
Gurwin Techsat 1B 29 Aug 04:54:19 04:58:16 21° 299° (WNW) 05:02:11 435.225
KKS-1 29 Aug 05:07:03 05:11:06 33° 263° (W) 05:15:10 437.445
CUBESAT XI-V 29 Aug 05:09:43 05:14:04 44° 71° (ENE) 05:18:29 437.345
AO-85 29 Aug 05:23:50 05:28:48 42° 117° (ESE) 05:33:32 145.980
MOZHAYETS 4 29 Aug 05:24:22 05:27:39 19° 268° (W) 05:30:56
PHONESAT 2.4 29 Aug 05:27:05 05:29:44 29° 193° (SSW) 05:32:24 2401.200-2431.200
BRITE-PL 29 Aug 05:38:14 05:41:12 14° 86° (E) 05:44:08 437.365/2234.400
STARS 29 Aug 05:39:06 05:43:01 30° 264° (W) 05:46:57 437.465
YUBILEINY 29 Aug 05:51:35 05:59:06 33° 83° (E) 06:06:36 435.215
NOAA 15 29 Aug 05:59:49 06:00:39 10° 87° (E) 06:01:29 137.62
HORYU 2 29 Aug 06:18:07 06:22:29 59° 101° (E) 06:26:50 437.375
RS-15 29 Aug 06:30:57 06:40:59 28° 358° (N) 06:51:13 29.354- 29.394
Cosmos 2491 29 Aug 06:31:54 06:40:37 66° 267° (W) 06:49:19 435.465 / 435.565
SO-50 29 Aug 06:36:16 06:38:31 13° 29° (NNE) 06:40:43 436.795
GOMX 1 29 Aug 06:43:49 06:48:12 25° 91° (E) 06:52:24 467.674
DOVE 4 29 Aug 06:46:03 06:46:30 10° 84° (E) 06:46:56 437.250
AO-7 29 Aug 06:46:38 06:53:59 37° 303° (WNW) 07:01:17 29.400- 29.500
CUBESAT XI-V 29 Aug 06:48:14 06:51:39 20° 268° (W) 06:55:08 437.345
NOAA 18 29 Aug 06:53:09 06:57:31 24° 94° (E) 07:01:50 137.9125
Cosmos 2504 29 Aug 07:03:54 07:11:02 33° 85° (E) 07:17:47 435.465 / 435.565
AO-85 29 Aug 07:04:38 07:09:22 34° 314° (NW) 07:13:51 145.980
PHONESAT 2.4 29 Aug 07:04:59 07:05:31 10° 208° (SSW) 07:06:02 2401.200-2431.200
STRAND 1 29 Aug 07:05:32 07:10:17 41° 69° (ENE) 07:15:04 437.568
BRITE-PL 29 Aug 07:14:37 07:20:23 87° 284° (WNW) 07:25:58 437.365/2234.400
LilacSat-2 29 Aug 07:27:31 07:31:16 58° 100° (E) 07:34:59 437.200
Cubesat XI-IV 29 Aug 07:28:21 07:33:35 54° 101° (E) 07:38:47 437.490
NOAA 15 29 Aug 07:35:53 07:41:15 81° 104° (ESE) 07:46:34 137.62
CUTE-I 29 Aug 07:39:41 07:45:00 70° 103° (ESE) 07:50:17 437.470
YUBILEINY 29 Aug 07:46:41 07:55:22 60° 284° (WNW) 08:04:07 435.215
HORYU 2 29 Aug 07:55:56 07:58:35 16° 299° (WNW) 08:01:13 437.375
SO-50 29 Aug 08:15:25 08:20:01 58° 51° (NE) 08:24:27 436.795
DOVE 4 29 Aug 08:19:56 08:25:02 86° 105° (ESE) 08:29:48 437.250
GOMX 1 29 Aug 08:21:18 08:26:29 47° 290° (WNW) 08:31:25 467.674
Cosmos 2491 29 Aug 08:32:15 08:35:36 13° 289° (WNW) 08:38:59 435.465 / 435.565
NOAA 18 29 Aug 08:33:09 08:38:26 50° 291° (WNW) 08:43:41 137.9125
ISS 29 Aug 08:37:45 08:40:39 29° 139° (SE) 08:43:34 145.825
SEEDS 29 Aug 08:42:28 08:45:44 21° 93° (E) 08:48:59 437.485
STRAND 1 29 Aug 08:45:23 08:49:36 26° 266° (W) 08:53:51 437.568
RS-15 29 Aug 08:46:31 08:58:00 41° 32° (NNE) 09:09:25 29.354- 29.394
CINEMA 3 29 Aug 08:49:17 08:53:40 47° 98° (E) 08:57:50 145.822/145.860
BRITE-PL 29 Aug 08:54:48 08:57:59 15° 302° (WNW) 09:01:09 437.365/2234.400
Cosmos 2504 29 Aug 08:55:54 09:04:05 55° 284° (WNW) 09:11:44 435.465 / 435.565
CUBEBUG 2 29 Aug 08:57:26 09:00:03 16° 91° (E) 09:02:36 437.445
PRISM 29 Aug 08:57:51 09:01:53 60° 73° (ENE) 09:05:59 437.425
LilacSat-2 29 Aug 09:03:41 09:05:05 12° 297° (WNW) 09:06:30 437.200
CUSAT 1 29 Aug 09:03:48 09:07:56 17° 64° (ENE) 09:12:30 437.405
HO-68 29 Aug 09:05:06 09:12:09 55° 101° (ESE) 09:19:07 435.675
CANX-2 29 Aug 09:06:38 09:10:52 64° 101° (E) 09:15:05 2200.000
AAUSAT CUBESAT 2 29 Aug 09:08:52 09:12:12 23° 94° (E) 09:15:31 437.432
Cubesat XI-IV 29 Aug 09:09:14 09:13:17 23° 298° (WNW) 09:17:19 437.490
CUTE 1.7 + AOD 2 29 Aug 09:12:25 09:16:39 65° 101° (E) 09:20:51 437.475
NOAA 15 29 Aug 09:17:12 09:20:21 16° 302° (WNW) 09:23:30 137.62
COMPASS 1 29 Aug 09:18:10 09:22:03 36° 97° (E) 09:25:55 437.405
ANTELSAT 29 Aug 09:19:36 09:21:45 13° 61° (ENE) 09:23:53 437.575/2403.000
CUTE-I 29 Aug 09:20:57 09:24:29 18° 301° (WNW) 09:28:01 437.470
AIST 1 29 Aug 09:31:15 09:35:27 49° 93° (E) 09:39:42
BEESAT 2 29 Aug 09:39:18 09:42:06 19° 112° (ESE) 09:44:56 435.950
TIGRISAT 29 Aug 09:48:20 09:51:57 24° 66° (ENE) 09:55:31 435.000
YUBILEINY 29 Aug 09:50:36 09:54:26 13° 308° (NW) 09:58:15 435.215
BEESAT 3 29 Aug 09:52:52 09:56:38 49° 120° (ESE) 10:00:28 437.485
SO-50 29 Aug 09:56:56 10:00:01 18° 249° (WSW) 10:03:03 436.795
DOVE 4 29 Aug 09:59:29 10:01:54 14° 302° (WNW) 10:04:17 437.250
Oscar 11 29 Aug 10:05:22 10:09:23 37° 97° (E) 10:13:24 145.826/435.025
ISS 29 Aug 10:13:51 10:17:01 45° 336° (NNW) 10:20:14 145.825
FUNcube-1 29 Aug 10:15:07 10:19:06 43° 98° (E) 10:23:02 145.935
DANDE 29 Aug 10:15:33 10:19:45 22° 71° (ENE) 10:24:46 436.750
UNISAT 6 29 Aug 10:16:37 10:21:00 46° 72° (ENE) 10:25:19 437.425
SEEDS 29 Aug 10:17:41 10:21:31 35° 290° (WNW) 10:25:22 437.485
UWE-3 29 Aug 10:26:47 10:30:59 82° 285° (WNW) 10:35:07 435.000/436.395/437.385
CINEMA 3 29 Aug 10:27:17 10:30:25 19° 297° (WNW) 10:33:27 145.822/145.860
QB50P1 29 Aug 10:32:36 10:33:44 11° 59° (ENE) 10:34:51 145.935-145.965
CUBEBUG 2 29 Aug 10:32:54 10:36:58 46° 288° (WNW) 10:40:56 437.445
DELFI C3 29 Aug 10:33:19 10:36:55 31° 97° (E) 10:40:29 145.870
PRISM 29 Aug 10:35:56 10:37:35 12° 270° (W) 10:39:17 437.425
ZACube-1 29 Aug 10:37:28 10:41:39 84° 103° (ESE) 10:45:47 437.345
POPSAT HIP 1 29 Aug 10:41:43 10:43:48 13° 61° (ENE) 10:45:54 437.405
AAUSAT CUBESAT 2 29 Aug 10:44:00 10:47:44 32° 290° (WNW) 10:51:28 437.432
CUSAT 1 29 Aug 10:44:05 10:50:35 82° 79° (E) 10:58:23 437.405
CANX-2 29 Aug 10:44:06 10:46:13 14° 298° (WNW) 10:48:19 2200.000
CUTE 1.7 + AOD 2 29 Aug 10:49:53 10:51:58 14° 298° (WNW) 10:54:04 437.475
ANTELSAT 29 Aug 10:53:18 10:57:53 76° 257° (WSW) 11:02:24 437.575/2403.000
HO-68 29 Aug 10:53:20 10:59:32 33° 300° (WNW) 11:05:43 435.675
COMPASS 1 29 Aug 10:54:12 10:57:24 21° 294° (WNW) 11:00:35 437.405
Cosmos 2504 29 Aug 10:57:32 10:59:21 11° 306° (NW) 11:01:09 435.465 / 435.565
RS-15 29 Aug 10:59:32 11:11:58 83° 239° (WSW) 11:24:09 29.354- 29.394
DUCHIFAT 1 29 Aug 11:06:04 11:09:15 21° 65° (ENE) 11:12:27 145.980
HUMSAT D 29 Aug 11:08:55 11:12:44 37° 98° (E) 11:16:32 437.325/437.525
AIST 1 29 Aug 11:10:35 11:13:22 16° 292° (WNW) 11:16:10
QB50P2 29 Aug 11:10:45 11:14:23 28° 68° (ENE) 11:18:01 145.880/145.840
POLYITAN 1 29 Aug 11:13:14 11:16:54 28° 67° (ENE) 11:20:33 437.675
BEESAT 2 29 Aug 11:15:50 11:19:37 44° 310° (NW) 11:23:28 435.950
NANOSAT C BR1 29 Aug 11:20:06 11:23:49 30° 68° (ENE) 11:27:35 145.865
TIGRISAT 29 Aug 11:24:09 11:28:26 38° 262° (W) 11:32:40 435.000
JAS-2 29 Aug 11:31:30 11:35:47 26° 61° (ENE) 11:40:22 435.910
BEESAT 3 29 Aug 11:31:36 11:34:34 20° 319° (NW) 11:37:34 437.485
Oscar 11 29 Aug 11:41:59 11:45:18 22° 294° (WNW) 11:48:37 145.826/435.025
ISS 29 Aug 11:51:22 11:54:03 22° 356° (N) 11:56:44 145.825
FUNcube-1 29 Aug 11:52:14 11:55:02 18° 296° (WNW) 11:57:49 145.935
PCSat 29 Aug 11:52:35 11:57:43 45° 114° (ESE) 12:02:53 145.827
BUGSAT 1 29 Aug 11:53:24 11:57:03 29° 68° (ENE) 12:00:43 437.445
UNISAT 6 29 Aug 11:54:41 11:57:56 19° 268° (W) 12:01:09 437.425
Cosmos 2499 29 Aug 11:56:09 12:03:11 35° 87° (E) 12:09:48 435.465 / 435.565
DANDE 29 Aug 11:57:13 12:02:39 66° 262° (W) 12:09:44 436.750
GONETS M04 29 Aug 12:02:18 12:10:37 51° 89° (E) 12:18:59
QB50P1 29 Aug 12:04:34 12:08:51 85° 257° (WSW) 12:13:09 145.935-145.965
AIST 2 29 Aug 12:04:43 12:08:12 27° 115° (ESE) 12:11:42 435.215
DELFI C3 29 Aug 12:08:27 12:11:36 23° 293° (WNW) 12:14:46 145.870
POPSAT HIP 1 29 Aug 12:14:48 12:19:04 67° 258° (WSW) 12:23:21 437.405
AO-85 29 Aug 12:15:50 12:17:02 11° 27° (NNE) 12:18:13 145.980
ZACube-1 29 Aug 12:16:49 12:17:16 10° 301° (WNW) 12:17:44 437.345
ESTCUBE 1 29 Aug 12:17:26 12:21:38 35° 97° (E) 12:25:48 437.505/2401.250
AISAT 29 Aug 12:18:56 12:22:20 21° 93° (E) 12:25:41 437.250
CUSAT 1 29 Aug 12:27:26 12:32:09 21° 274° (W) 12:37:23 437.405
50 SAT 29 Aug 12:28:11 12:31:03 22° 95° (E) 12:33:56 437.505
AUBIESAT-1 29 Aug 12:34:50 12:38:47 49° 105° (ESE) 12:42:23 437.475
DUCHIFAT 1 29 Aug 12:40:43 12:44:42 38° 262° (W) 12:48:42 145.980
M-CUBED/EXP-1 PRIME 29 Aug 12:42:01 12:46:11 76° 108° (ESE) 12:49:57 437.505
HUMSAT D 29 Aug 12:45:08 12:48:07 20° 294° (WNW) 12:51:06 437.325/437.525
QB50P2 29 Aug 12:46:24 12:50:07 28° 264° (W) 12:53:51 145.880/145.840
POLYITAN 1 29 Aug 12:48:56 12:52:38 28° 264° (W) 12:56:22 437.675
NANOSAT C BR1 29 Aug 12:56:00 12:59:33 25° 265° (W) 13:03:08 145.865
Gurwin Techsat 1B 29 Aug 12:59:00 13:02:12 16° 58° (ENE) 13:05:25 435.225
CUBEBUG 1 29 Aug 13:02:40 13:07:06 70° 102° (ESE) 13:11:30 437.445
VELOX 1 29 Aug 13:05:21 13:09:47 59° 101° (E) 13:14:10 145.980
Oscar 19 29 Aug 13:11:23 13:16:10 40° 68° (ENE) 13:20:59 437.125/150
SPROUT 29 Aug 13:11:57 13:15:56 36° 97° (E) 13:19:52 437.525
RS-15 29 Aug 13:13:53 13:22:33 23° 261° (W) 13:31:08 29.354- 29.394
JAS-2 29 Aug 13:15:38 13:20:37 44° 262° (W) 13:25:58 435.910
DX 1 29 Aug 13:16:30 13:20:48 52° 100° (E) 13:25:04 434.975-435.025
TISAT 1 29 Aug 13:26:33 13:27:47 11° 89° (E) 13:29:01 437.305
ISS 29 Aug 13:28:13 13:31:12 31° 17° (NNE) 13:34:11 145.825
BUGSAT 1 29 Aug 13:28:45 13:32:23 27° 265° (W) 13:36:02 437.445
PCSat 29 Aug 13:36:27 13:41:16 32° 313° (NW) 13:46:07 145.827
AIST 2 29 Aug 13:42:48 13:46:34 34° 313° (NW) 13:50:23 435.215
Cosmos 2499 29 Aug 13:48:18 13:56:04 50° 285° (WNW) 14:03:19 435.465 / 435.565
O/OREOS (USA 219) 29 Aug 13:50:06 13:54:13 37° 106° (ESE) 13:58:23 437.305
UKube-1 29 Aug 13:53:24 13:57:46 81° 286° (WNW) 14:02:06 .
AO-85 29 Aug 13:54:24 13:58:38 49° 50° (NE) 14:02:33 145.980
ESTCUBE 1 29 Aug 13:54:33 13:58:16 25° 294° (WNW) 14:01:59 437.505/2401.250
AISAT 29 Aug 13:54:46 13:58:58 41° 290° (WNW) 14:03:07 437.250
GONETS M04 29 Aug 13:59:35 14:07:38 39° 290° (WNW) 14:15:48
50 SAT 29 Aug 14:01:32 14:04:37 26° 291° (WNW) 14:07:42 437.505
AO-7 29 Aug 14:04:18 14:10:26 23° 49° (NE) 14:16:33 29.400- 29.500
AUBIESAT-1 29 Aug 14:10:16 14:12:48 16° 304° (NW) 14:15:13 437.475
M-CUBED/EXP-1 PRIME 29 Aug 14:18:22 14:20:00 12° 307° (NW) 14:21:37 437.505
ITAMSAT 1 29 Aug 14:29:58 14:34:28 31° 66° (ENE) 14:39:00 435.822/435.867
Gurwin Techsat 1B 29 Aug 14:36:11 14:41:30 79° 257° (WSW) 14:46:51 435.225
CUBEBUG 1 29 Aug 14:40:35 14:42:50 14° 299° (WNW) 14:45:03 437.445
VELOX 1 29 Aug 14:43:04 14:45:46 16° 299° (WNW) 14:48:29 145.980
SPROUT 29 Aug 14:48:21 14:51:40 22° 294° (WNW) 14:54:57 437.525
Oscar 19 29 Aug 14:51:11 14:55:35 28° 265° (W) 15:00:01 437.125/150
DX 1 29 Aug 14:53:43 14:56:35 17° 298° (WNW) 14:59:28 434.975-435.025
ITUPSAT 1 29 Aug 14:54:42 14:58:15 20° 93° (E) 15:01:47 437.325
TISAT 1 29 Aug 14:59:42 15:03:54 69° 287° (WNW) 15:08:03 437.305
ISS 29 Aug 15:04:35 15:07:51 60° 215° (SW) 15:11:05 145.825
SWISSCUBE 29 Aug 15:25:59 15:30:34 46° 99° (E) 15:35:09 437.505
O/OREOS (USA 219) 29 Aug 15:29:57 15:33:43 26° 305° (NW) 15:37:31 437.305
AO-85 29 Aug 15:35:50 15:38:37 17° 250° (WSW) 15:41:17 145.980
BEESAT 29 Aug 15:42:49 15:47:33 61° 102° (ESE) 15:52:15 436.000
AO-7 29 Aug 15:53:46 16:02:08 87° 71° (ENE) 16:10:32 29.400- 29.500
YUBILEINY 29 Aug 15:59:32 16:05:02 18° 57° (ENE) 16:10:30 435.215
ITAMSAT 1 29 Aug 16:09:07 16:13:52 36° 263° (W) 16:18:38 435.822/435.867
ITUPSAT 1 29 Aug 16:31:45 16:36:19 47° 290° (WNW) 16:40:53 437.325
BRITE-PL 29 Aug 16:50:27 16:53:48 18° 59° (ENE) 16:57:18 437.365/2234.400
KKS-1 29 Aug 16:55:53 17:00:06 40° 98° (E) 17:04:17 437.445
Cosmos 2504 29 Aug 16:57:08 16:58:17 10° 53° (NE) 16:59:26 435.465 / 435.565
SWISSCUBE 29 Aug 17:04:26 17:08:04 22° 297° (WNW) 17:11:42 437.505
Cubesat XI-IV 29 Aug 17:14:45 17:17:56 16° 58° (ENE) 17:21:08 437.490
MOZHAYETS 4 29 Aug 17:15:54 17:20:31 87° 103° (ESE) 17:25:07
HORYU 2 29 Aug 17:17:21 17:21:46 67° 73° (ENE) 17:26:12 437.375
NOAA 15 29 Aug 17:19:38 17:23:36 22° 61° (ENE) 17:27:34 137.62
BEESAT 29 Aug 17:21:46 17:24:51 17° 299° (WNW) 17:27:57 436.000
CUTE-I 29 Aug 17:25:15 17:29:01 20° 60° (ENE) 17:32:46 437.470
STARS 29 Aug 17:26:16 17:30:27 41° 99° (E) 17:34:34 437.465
Cosmos 2491 29 Aug 17:39:39 17:46:58 31° 82° (E) 17:54:18 435.465 / 435.565
AO-7 29 Aug 17:49:57 17:55:53 21° 269° (W) 18:01:51 29.400- 29.500
DOVE 4 29 Aug 17:51:02 17:54:04 16° 59° (ENE) 17:57:07 437.250
GOMX 1 29 Aug 17:52:47 17:57:19 31° 66° (ENE) 18:02:01 467.674
HO-68 29 Aug 17:54:19 17:55:57 11° 44° (NE) 17:57:35 435.675
YUBILEINY 29 Aug 17:54:42 18:03:32 77° 80° (E) 18:12:14 435.215
BEESAT 2 29 Aug 17:54:49 17:58:04 23° 43° (NE) 18:01:18 435.950
BEESAT 3 29 Aug 18:08:26 18:12:19 50° 51° (NE) 18:16:10 437.485
LilacSat-2 29 Aug 18:10:56 18:14:28 36° 71° (ENE) 18:17:59 437.200
NOAA 18 29 Aug 18:20:39 18:26:02 53° 69° (ENE) 18:31:24 137.9125
BRITE-PL 29 Aug 18:26:42 18:31:36 69° 259° (W) 18:36:58 437.365/2234.400
KKS-1 29 Aug 18:32:59 18:36:26 22° 296° (WNW) 18:39:51 437.445
CUBESAT XI-V 29 Aug 18:41:24 18:46:09 88° 103° (ESE) 18:50:52 437.345
MOZHAYETS 4 29 Aug 18:55:21 18:56:59 12° 301° (WNW) 18:58:37
